Tracking 19192 objects as of 18-Jun-2018
HD Live streaming from Space Station
objects crossing your sky now

SS 1

Track SS 1 now!
10-day predictions
SS 1 is classified as:


NORAD ID: 10529
Int'l Code: 1977-112D
Perigee: 385.8 km
Apogee: 1,553.9 km
Inclination: 63.3 °
Period: 104.3 minutes
Semi major axis: 7340 km
RCS: Unknown
Launch date: December 8, 1977
Source: United States (US)
Launch site: AIR FORCE WESTERN TEST RANGE (AFWTR)
aabbcc
Your satellite tracking list
Your tracking list is empty




NASA's NSSDC Master Catalog

Two Line Element Set (TLE):
1 10529U 77112D   18106.82981099 0.00001500  00000-0  10270-3 0    09
2 10529  63.2923   7.3585 0795625 113.7850 246.2150 13.80329981    05
Source of the keplerian elements: McCants